FW7026 Weather Reports


time (UTC)temp
C
wind
direction
speed
KPH
gust
KPH
rain 1hr
cm
rain 24hr
cm
rain mn
cm
humidity
%
barometer
mb
20260504212508 10 308 0.0 3.2 0.00 0.00 0.00 55 1000.9
20260504212005 10 220 0.0 0.0 0.00 0.00 0.00 55 1000.4
20260504211502 10 239 0.0 0.0 0.00 0.00 0.00 55 1000.4
20260504210959 10 260 0.0 8.0 0.00 0.00 0.00 54 1000.4
20260504210456 10 146 0.0 0.0 0.00 0.00 0.00 55 1000.4
20260504205953 10 263 0.0 0.0 0.00 0.00 0.00 55 1000.4
20260504205450 10 250 0.0 0.0 0.00 0.00 0.00 56 1000.4
20260504204948 10 271 0.0 0.0 0.00 0.00 0.00 54 1000.4
20260504204446 10 195 0.0 0.0 0.00 0.00 0.00 55 1000.1
20260504203945 10 185 0.0 0.0 0.00 0.00 0.00 55 1000.4
20260504203443 9 220 0.0 3.2 0.00 0.00 0.00 55 1000.4
20260504202938 10 285 0.0 0.0 0.00 0.00 0.00 53 1000.4
20260504202435 10 265 0.0 0.0 0.00 0.00 0.00 53 1000.4
20260504201932 10 221 0.0 8.0 0.00 0.00 0.00 52 1000.4
20260504201429 10 222 0.0 0.0 0.00 0.00 0.00 52 1000.4
20260504200927 10 256 0.0 3.2 0.00 0.00 0.00 52 1000.4
20260504200423 10 251 0.0 0.0 0.00 0.00 0.00 52 1000.4
20260504195920 11 206 0.0 0.0 0.00 0.00 0.00 52 1000.4
20260504195416 9 254 0.0 0.0 0.00 0.00 0.00 55 1000.4
20260504194913 10 138 0.0 3.2 0.00 0.00 0.00 54 1000.4
20260504194408 9 200 0.0 0.0 0.00 0.00 0.00 58 1000.9
20260504193905 8 188 0.0 0.0 0.00 0.00 0.00 57 1000.4
20260504193402 8 236 0.0 3.2 0.00 0.00 0.00 58 1000.9
20260504192901 8 177 0.0 0.0 0.00 0.00 0.00 58 1000.9
20260504192358 8 234 0.0 0.0 0.00 0.00 0.00 58 1000.4
20260504191856 8 128 0.0 3.2 0.00 0.00 0.00 57 1000.4
20260504191354 8 167 0.0 0.0 0.00 0.00 0.00 57 1000.4
20260504190849 8 255 0.0 3.2 0.00 0.00 0.00 53 1000.9
20260504190345 9 119 0.0 0.0 0.00 0.00 0.00 53 1000.9
20260504185842 9 173 0.0 0.0 0.00 0.00 0.00 52 1000.9
20260504185339 9 235 0.0 0.0 0.00 0.00 0.00 51 1000.9
20260504184835 9 191 0.0 0.0 0.00 0.00 0.00 49 1000.9
20260504184331 9 217 0.0 0.0 0.00 0.00 0.00 48 1000.9
20260504183827 10 306 0.0 0.0 0.00 0.00 0.00 47 1000.9
20260504183324 10 274 0.0 0.0 0.00 0.00 0.00 43 1000.4
20260504182822 10 148 0.0 0.0 0.00 0.00 0.00 43 1000.4
20260504182319 10 225 0.0 0.0 0.00 0.00 0.00 41 1000.4
20260504181816 10 258 0.0 0.0 0.00 0.00 0.00 39 1000.9
20260504181314 10 282 0.0 0.0 0.00 0.00 0.00 39 1000.4
20260504180813 10 275 0.0 0.0 0.00 0.00 0.00 39 1000.4
20260504180311 10 5 0.0 0.0 0.00 0.00 0.00 39 1000.4
20260504175808 10 275 0.0 0.0 0.00 0.00 0.00 38 1000.4
20260504175305 10 230 0.0 0.0 0.00 0.00 0.00 39 1000.4
20260504174803 10 227 0.0 0.0 0.00 0.00 0.00 37 1000.4
20260504174300 11 283 0.0 16.1 0.00 0.00 0.00 34 1000.4
20260504173757 11 257 0.0 0.0 0.00 0.00 0.00 30 1000.1
20260504173254 12 216 0.0 8.0 0.00 0.00 0.00 29 1000.1
20260504172750 12 354 0.0 0.0 0.00 0.00 0.00 31 999.8
20260504172247 12 227 0.0 0.0 0.00 0.00 0.00 32 999.8
20260504171743 13 175 0.0 0.0 0.00 0.00 0.00 30 999.8
20260504171240 13 197 0.0 3.2 0.00 0.00 0.00 31 999.8
20260504170737 13 237 14.5 20.9 0.00 0.00 0.00 28 999.8
20260504170235 13 290 0.0 0.0 0.00 0.00 0.00 29 999.8
20260504160153 13 110 0.0 0.0 0.00 0.00 0.00 30 999.8
20260504151121 12 292 0.0 0.0 0.00 0.00 0.00 32 1000.4
20260504150618 12 291 0.0 0.0 0.00 0.00 0.00 30 1000.4
20260504150115 11 120 0.0 0.0 0.00 0.00 0.00 34 1000.9
20260504141044 10 72 0.0 0.0 0.00 0.00 0.00 39 1000.9
20260504140540 10 173 0.0 0.0 0.00 0.00 0.00 37 1000.9
20260504130504 8 256 0.0 0.0 0.00 0.00 0.00 46 1001.2
20260504110346 2 300 0.0 0.0 0.00 0.00 0.00 75 1001.2
20260504100303 0 248 0.0 0.0 0.00 0.00 0.00 83 1001.2
20260504081656 0 149 0.0 0.0 0.00 0.00 0.00 84 1000.1
20260504081153 0 180 0.0 0.0 0.00 0.00 0.00 84 1000.4
20260504080649 0 308 0.0 0.0 0.00 0.00 0.00 84 1000.1
20260504080145 0 205 0.0 0.0 0.00 0.00 0.00 84 1000.1
20260504070114 0 257 0.0 0.0 0.00 0.00 0.00 84 1000.1
20260504050502 1 281 0.0 0.0 0.00 0.00 0.00 86 1000.4
20260504045959 1 105 0.0 0.0 0.00 0.00 0.00 86 1000.4
20260504045455 1 236 0.0 0.0 0.00 0.00 0.00 86 1000.1
20260504044951 1 171 0.0 0.0 0.00 0.00 0.00 86 1000.4
20260504044449 1 267 0.0 0.0 0.00 0.00 0.00 86 1000.4
20260504043946 1 238 0.0 0.0 0.00 0.00 0.00 87 1000.4
20260504043443 1 41 0.0 0.0 0.00 0.00 0.00 86 1000.4
20260504042940 1 326 0.0 0.0 0.00 0.00 0.00 87 1000.4
20260504042437 1 314 0.0 0.0 0.00 0.00 0.00 88 1000.4
20260504041934 1 40 0.0 0.0 0.00 0.00 0.00 88 1000.4
20260504041430 1 334 0.0 0.0 0.00 0.00 0.00 89 1000.4
20260504040926 1 241 0.0 0.0 0.00 0.00 0.00 89 1000.4
20260504040424 1 176 0.0 0.0 0.00 0.00 0.00 89 1000.9
20260504035920 1 157 0.0 0.0 0.00 0.86 0.86 90 1000.4
20260504035417 1 170 0.0 0.0 0.00 0.86 0.86 90 1000.9
20260504034913 2 263 0.0 0.0 0.00 0.86 0.86 90 1000.9
20260504034411 2 191 0.0 0.0 0.00 0.86 0.86 90 1000.4
20260504033908 2 157 0.0 0.0 0.00 0.86 0.86 91 1000.4
20260504033406 2 335 0.0 0.0 0.00 0.86 0.86 91 1000.4
20260504032903 2 128 0.0 0.0 0.00 0.86 0.86 91 1000.4
20260504032400 2 165 0.0 0.0 0.00 0.86 0.86 91 1000.4
20260504031856 2 192 0.0 0.0 0.00 0.86 0.86 91 1000.4
20260504031353 2 274 0.0 0.0 0.00 0.86 0.86 92 1000.4
20260504030850 2 251 0.0 0.0 0.00 0.86 0.86 92 1000.4
20260504030347 2 158 0.0 0.0 0.00 0.86 0.86 92 1000.4
20260504025843 2 32 0.0 0.0 0.00 0.86 0.86 92 1000.4
20260504025340 2 269 0.0 0.0 0.00 0.86 0.86 92 1000.4
20260504024837 3 259 0.0 0.0 0.00 0.86 0.86 92 1000.4
20260504024333 3 240 0.0 0.0 0.00 0.86 0.86 92 1000.4
20260504023830 3 224 0.0 0.0 0.00 0.86 0.86 92 1000.4
20260504023327 3 197 0.0 0.0 0.00 0.86 0.86 92 1000.4
20260504022822 3 184 0.0 0.0 0.00 0.86 0.86 92 1000.4
20260504022320 3 1 0.0 0.0 0.00 0.86 0.86 92 1000.4
20260504021816 3 220 0.0 0.0 0.00 0.86 0.86 92 1000.4
20260504021314 3 14 0.0 0.0 0.00 0.86 0.86 92 1000.4
20260504020810 3 242 0.0 0.0 0.00 0.86 0.86 92 1000.4
20260504020307 3 196 0.0 0.0 0.00 0.86 0.86 92 1000.4
20260504015757 3 83 0.0 0.0 0.00 0.86 0.86 92 1000.4
20260504015254 3 189 0.0 0.0 0.00 0.86 0.86 92 1000.4
20260504014750 3 35 0.0 0.0 0.00 0.86 0.86 92 1000.4
20260504014246 3 1 0.0 0.0 0.00 0.86 0.86 92 1000.9
20260504013744 3 16 0.0 0.0 0.00 0.86 0.86 92 1000.9
20260504013242 3 49 0.0 0.0 0.00 0.86 0.86 92 1000.9
20260504012738 3 23 0.0 0.0 0.00 0.86 0.86 92 1000.9
20260504012236 3 260 0.0 0.0 0.00 0.86 0.86 92 1000.9
20260504011732 3 63 0.0 0.0 0.00 0.86 0.86 92 1000.9
20260504011229 3 357 0.0 0.0 0.00 0.86 0.86 92 1000.9
20260504010725 4 359 0.0 0.0 0.00 0.86 0.86 92 1000.9
20260504010221 4 353 0.0 0.0 0.00 0.86 0.86 92 1000.9
20260504005718 4 24 0.0 0.0 0.00 0.86 0.86 92 1000.9
20260504005215 4 66 0.0 0.0 0.00 0.86 0.86 92 1000.9
20260504004712 4 307 0.0 0.0 0.00 0.86 0.86 92 1000.9
20260504004209 4 6 0.0 0.0 0.00 0.86 0.86 92 1000.4
20260504003706 4 6 0.0 0.0 0.00 0.86 0.86 92 1000.4
20260504003203 4 179 0.0 0.0 0.00 0.86 0.86 92 1000.4
20260504002700 4 354 0.0 0.0 0.00 0.86 0.86 92 1000.4
20260504002157 4 6 0.0 0.0 0.00 0.86 0.86 92 1000.4
20260504001655 4 5 0.0 0.0 0.00 0.86 0.86 92 1000.4
20260504001151 4 333 0.0 0.0 0.00 0.86 0.86 92 1000.4
20260504000648 4 2 0.0 3.2 0.00 0.86 0.86 92 1000.4
20260504000145 4 24 0.0 0.0 0.00 0.86 0.86 92 1000.4
20260503235643 4 348 0.0 0.0 0.00 0.86 0.86 92 1000.4
20260503235139 4 2 0.0 0.0 0.00 0.86 0.86 92 1000.4
20260503234638 4 8 0.0 0.0 0.00 0.86 0.86 92 1000.4
20260503234136 4 43 0.0 0.0 0.00 0.86 0.86 92 1000.4
20260503233632 4 10 0.0 0.0 0.00 0.86 0.86 92 1000.4
20260503233128 4 358 0.0 0.0 0.00 0.86 0.86 92 1000.4
20260503232625 4 348 0.0 0.0 0.00 0.86 0.86 92 1000.4
20260503232122 4 40 0.0 0.0 0.00 0.86 0.86 92 1000.1
20260503231620 4 25 0.0 0.0 0.18 0.86 0.86 92 1000.4
20260503231117 4 6 0.0 0.0 0.18 0.86 0.86 92 1000.4
20260503230614 4 353 0.0 0.0 0.00 0.84 0.84 92 1000.4
20260503230111 4 326 0.0 0.0 0.00 0.84 0.84 92 1000.4
20260503225608 4 322 0.0 0.0 0.00 0.84 0.84 92 1000.4
20260503225107 4 340 0.0 0.0 0.00 0.84 0.84 92 1000.4
20260503224605 4 32 0.0 0.0 0.00 0.84 0.84 92 1000.4
20260503224103 4 39 0.0 0.0 0.00 0.84 0.84 92 1000.4
20260503223601 4 8 0.0 0.0 0.00 0.84 0.84 92 1000.4
20260503223056 4 9 0.0 0.0 0.00 0.84 0.84 92 1000.1
20260503222554 4 21 0.0 0.0 0.00 0.84 0.84 92 1000.4
20260503222052 5 7 0.0 0.0 0.00 0.84 0.84 92 1000.4
20260503221550 5 40 0.0 0.0 0.00 0.84 0.84 92 1000.4
20260503221047 5 79 0.0 0.0 0.00 0.84 0.84 92 1000.4
20260503220543 5 159 0.0 0.0 0.00 0.84 0.84 92 1000.4
20260503220040 5 359 0.0 0.0 0.00 0.84 0.84 92 1000.4
20260503215537 5 6 0.0 0.0 0.00 0.84 0.84 92 1000.4
20260503215034 5 5 0.0 0.0 0.00 0.84 0.84 92 1000.9
20260503214533 5 14 0.0 0.0 0.00 0.84 0.84 92 1000.4
20260503214029 5 354 0.0 0.0 0.00 0.84 0.84 92 1000.9
20260503213528 5 334 0.0 0.0 0.00 0.84 0.84 92 1000.9
20260503213024 5 4 0.0 0.0 0.00 0.84 0.84 92 1000.9